sat.trackr.live / text

‹ back to catalog

LEMUR-2-WILSON

NORAD 62694 · 2025-009CP

PAYLOAD ACTIVE UNKNOWN

§ Identity

Operator
Country
US
Launch date
2025-01-14
Launch site
AFWTR
Launch vehicle
Mass (kg)
RCS (m²)

Purposes: earth_obs

External: N2YO · Heavens-Above · Gunter

§ Orbital elements

Epoch: 2026-09-19T10:43:07.225824Z

Period
96.29 min
Inclination
97.6962°
Eccentricity
0.0004759
Mean motion
14.95491919 rev/d
Perigee alt
577.5 km
Apogee alt
584.2 km
Semi-major
6,959.0 km
B*
1.3289e-4
RAAN
339.2435°
Arg perigee
86.3851°
Mean anomaly
273.7914°
Rev number
9,144

§ Raw data

LEMUR-2-WILSON1 62694U 25009CP  26262.44661141  .00001414  00000+0  13289-3 0  99932 62694  97.6962 339.2435 0004759  86.3851 273.7914 14.95491919 91446

JSON: /api/v1/satellites/62694 · /tle

For live sub-satellite position, see the globe view (requires WebGL).

§ Visibility from observer

Set your observer location to see the next 7 days of passes ≥ 10°. The values pass through the URL so the page stays shareable.

No JS? Fill the form by hand. The geolocation button needs JavaScript.